Location: Sevilla
(37.3933°N, 5.9839°W)
Time: 05:56:19
(UTC+02:00)

Transit 2A Rocket - Pass Details

Date: 02 July 2024
Orbit: 582 x 910 km, 66.7° (Epoch: 15 July)

Event Time Altitude Azimuth Distance (km) Brightness Sun altitude
Rises 06:14:42 0° 322° (NW) 3,543 8.5 -9.5°
Reaches altitude 10° 06:17:27 10° 314° (NW) 2,600 7.7 -9.1°
Maximum altitude 06:22:50 34° 252° (WSW) 1,450 6.0 -8.2°
Drops below altitude 10° 06:28:03 10° 189° (S) 2,512 7.2 -7.4°
Sets 06:30:40 0° 180° (S) 3,407 8.0 -7.0°
